Time,TemperatureF,DewpointF,PressureIn,WindDirection,WindDirectionDegrees,WindSpeedMPH,WindSpeedGustMPH,Humidity,HourlyPrecipIn,Conditions,Clouds,dailyrainin,SoftwareType,DateUTC
2013-05-18 00:08:00,71.6,63.0,30.12,ENE,69,0.0,-999.0,74,-99.99,,,0.00,weatherlink.com 1.10,2013-05-18 04:08:00,
2013-05-18 00:23:00,71.6,63.0,30.12,East,100,0.0,-999.0,74,-99.99,,,0.00,weatherlink.com 1.10,2013-05-18 04:23:00,
2013-05-18 00:38:00,71.6,63.0,30.12,SE,124,0.0,-999.0,75,-99.99,,,0.00,weatherlink.com 1.10,2013-05-18 04:38:00,
2013-05-18 00:53:00,71.6,64.0,30.12,ESE,117,1.0,-999.0,76,-99.99,,,0.00,weatherlink.com 1.10,2013-05-18 04:53:00,
2013-05-18 01:08:00,71.6,64.0,30.12,ESE,122,0.0,-999.0,76,-99.99,,,0.00,weatherlink.com 1.10,2013-05-18 05:08:00,
2013-05-18 01:23:00,71.6,64.0,30.12,SSE,162,0.0,-999.0,77,-99.99,,,0.00,weatherlink.com 1.10,2013-05-18 05:23:00,
2013-05-18 01:38:00,71.5,64.0,30.12,East,95,0.0,-999.0,77,-99.99,,,0.00,weatherlink.com 1.10,2013-05-18 05:38:00,
2013-05-18 01:53:00,71.5,64.0,30.11,East,95,0.0,-999.0,77,-99.99,,,0.00,weatherlink.com 1.10,2013-05-18 05:53:00,
2013-05-18 02:08:00,71.3,64.0,30.11,East,95,0.0,-999.0,78,-99.99,,,0.00,weatherlink.com 1.10,2013-05-18 06:08:00,
2013-05-18 02:23:00,71.3,65.0,30.11,East,95,1.0,-999.0,79,-99.99,,,0.00,weatherlink.com 1.10,2013-05-18 06:23:00,
2013-05-18 02:38:00,71.3,65.0,30.11,East,95,0.0,-999.0,79,-99.99,,,0.00,weatherlink.com 1.10,2013-05-18 06:38:00,
2013-05-18 02:53:00,71.1,65.0,30.11,East,95,0.0,-999.0,80,-99.99,,,0.00,weatherlink.com 1.10,2013-05-18 06:53:00,
2013-05-18 03:08:00,71.1,65.0,30.11,East,94,0.0,-999.0,80,-99.99,,,0.00,weatherlink.com 1.10,2013-05-18 07:08:00,
2013-05-18 03:23:00,70.9,64.0,30.11,East,95,0.0,-999.0,80,-99.99,,,0.00,weatherlink.com 1.10,2013-05-18 07:23:00,
2013-05-18 03:38:00,70.9,64.0,30.11,East,95,0.0,-999.0,80,-99.99,,,0.00,weatherlink.com 1.10,2013-05-18 07:38:00,
2013-05-18 03:53:00,70.8,65.0,30.11,East,95,0.0,-999.0,81,-99.99,,,0.00,weatherlink.com 1.10,2013-05-18 07:53:00,
2013-05-18 04:08:00,70.8,65.0,30.11,East,95,0.0,-999.0,81,-99.99,,,0.00,weatherlink.com 1.10,2013-05-18 08:08:00,
2013-05-18 04:23:00,70.8,65.0,30.11,East,95,0.0,-999.0,81,-99.99,,,0.00,weatherlink.com 1.10,2013-05-18 08:23:00,
2013-05-18 04:38:00,70.6,65.0,30.11,East,95,0.0,-999.0,81,-99.99,,,0.00,weatherlink.com 1.10,2013-05-18 08:38:00,
2013-05-18 04:53:00,70.6,65.0,30.11,East,95,0.0,-999.0,81,-99.99,,,0.00,weatherlink.com 1.10,2013-05-18 08:53:00,
2013-05-18 05:08:00,70.6,65.0,30.11,East,95,0.0,-999.0,82,-99.99,,,0.00,weatherlink.com 1.10,2013-05-18 09:08:00,
2013-05-18 05:23:00,70.6,65.0,30.11,East,95,0.0,-999.0,82,-99.99,,,0.00,weatherlink.com 1.10,2013-05-18 09:23:00,
2013-05-18 05:38:00,70.4,65.0,30.11,East,95,0.0,-999.0,82,-99.99,,,0.00,weatherlink.com 1.10,2013-05-18 09:38:00,
2013-05-18 05:53:00,70.3,65.0,30.11,East,95,0.0,-999.0,82,-99.99,,,0.00,weatherlink.com 1.10,2013-05-18 09:53:00,
2013-05-18 06:08:00,70.1,64.0,30.11,East,95,0.0,-999.0,82,-99.99,,,0.00,weatherlink.com 1.10,2013-05-18 10:08:00,
2013-05-18 06:23:00,70.3,65.0,30.12,East,95,0.0,-999.0,83,-99.99,,,0.00,weatherlink.com 1.10,2013-05-18 10:23:00,
2013-05-18 06:38:00,70.4,65.0,30.12,East,95,0.0,-999.0,83,-99.99,,,0.00,weatherlink.com 1.10,2013-05-18 10:38:00,
2013-05-18 06:53:00,70.6,65.0,30.13,East,95,0.0,-999.0,83,-99.99,,,0.00,weatherlink.com 1.10,2013-05-18 10:53:00,
2013-05-18 07:08:00,70.8,65.0,30.14,East,95,0.0,-999.0,83,-99.99,,,0.00,weatherlink.com 1.10,2013-05-18 11:08:00,
2013-05-18 07:23:00,70.9,66.0,30.15,East,95,0.0,-999.0,83,-99.99,,,0.00,weatherlink.com 1.10,2013-05-18 11:23:00,
2013-05-18 07:38:00,71.5,66.0,30.15,East,95,0.0,-999.0,83,-99.99,,,0.00,weatherlink.com 1.10,2013-05-18 11:38:00,
2013-05-18 07:53:00,72.1,67.0,30.15,ENE,58,3.0,-999.0,83,-99.99,,,0.00,weatherlink.com 1.10,2013-05-18 11:53:00,
2013-05-18 08:08:00,72.5,67.0,30.16,East,93,0.0,-999.0,82,-99.99,,,0.00,weatherlink.com 1.10,2013-05-18 12:08:00,
2013-05-18 08:23:00,72.8,66.0,30.16,ENE,64,1.0,-999.0,80,-99.99,,,0.00,weatherlink.com 1.10,2013-05-18 12:23:00,
2013-05-18 08:38:00,73.0,67.0,30.16,East,97,1.0,-999.0,80,-99.99,,,0.00,weatherlink.com 1.10,2013-05-18 12:38:00,
2013-05-18 08:53:00,73.3,66.0,30.17,NE,56,1.0,-999.0,79,-99.99,,,0.00,weatherlink.com 1.10,2013-05-18 12:53:00,
2013-05-18 09:08:00,73.7,66.0,30.17,East,97,4.0,-999.0,78,-99.99,,,0.00,weatherlink.com 1.10,2013-05-18 13:08:00,
2013-05-18 09:23:00,74.4,67.0,30.16,East,83,0.0,-999.0,77,-99.99,,,0.00,weatherlink.com 1.10,2013-05-18 13:23:00,
2013-05-18 09:38:00,75.1,67.0,30.16,East,83,4.0,-999.0,77,-99.99,,,0.00,weatherlink.com 1.10,2013-05-18 13:38:00,
2013-05-18 09:53:00,75.1,67.0,30.16,ENE,66,0.0,-999.0,75,-99.99,,,0.00,weatherlink.com 1.10,2013-05-18 13:53:00,
2013-05-18 10:09:00,75.4,67.0,30.16,NE,49,0.0,-999.0,75,-99.99,,,0.00,weatherlink.com 1.10,2013-05-18 14:09:00,
2013-05-18 10:23:00,75.8,67.0,30.16,NNE,25,0.0,-999.0,74,-99.99,,,0.00,weatherlink.com 1.10,2013-05-18 14:23:00,
2013-05-18 10:39:00,76.3,67.0,30.16,ENE,74,0.0,-999.0,73,-99.99,,,0.00,weatherlink.com 1.10,2013-05-18 14:39:00,
2013-05-18 10:54:00,76.8,67.0,30.16,ENE,64,1.0,-999.0,71,-99.99,,,0.00,weatherlink.com 1.10,2013-05-18 14:54:00,
2013-05-18 11:09:00,77.4,67.0,30.16,ENE,77,5.0,-999.0,70,-99.99,,,0.00,weatherlink.com 1.10,2013-05-18 15:09:00,
2013-05-18 11:24:00,77.7,67.0,30.16,NNE,16,1.0,-999.0,69,-99.99,,,0.00,weatherlink.com 1.10,2013-05-18 15:24:00,
2013-05-18 11:39:00,78.6,67.0,30.15,East,101,1.0,-999.0,67,-99.99,,,0.00,weatherlink.com 1.10,2013-05-18 15:39:00,
2013-05-18 11:54:00,79.0,67.0,30.16,WNW,299,1.0,-999.0,66,-99.99,,,0.00,weatherlink.com 1.10,2013-05-18 15:54:00,
2013-05-18 12:09:00,79.8,67.0,30.16,ESE,103,1.0,-999.0,64,-99.99,,,0.00,weatherlink.com 1.10,2013-05-18 16:09:00,
2013-05-18 12:24:00,79.9,67.0,30.16,WNW,289,0.0,-999.0,64,-99.99,,,0.00,weatherlink.com 1.10,2013-05-18 16:24:00,
2013-05-18 12:39:00,80.9,67.0,30.16,NE,53,1.0,-999.0,63,-99.99,,,0.00,weatherlink.com 1.10,2013-05-18 16:39:00,
2013-05-18 12:54:00,80.9,67.0,30.15,ENE,66,1.0,-999.0,62,-99.99,,,0.00,weatherlink.com 1.10,2013-05-18 16:54:00,
2013-05-18 13:09:00,80.9,66.0,30.15,NW,313,2.0,-999.0,61,-99.99,,,0.00,weatherlink.com 1.10,2013-05-18 17:09:00,
2013-05-18 13:24:00,81.1,66.0,30.15,East,87,1.0,-999.0,61,-99.99,,,0.00,weatherlink.com 1.10,2013-05-18 17:24:00,
2013-05-18 13:39:00,80.9,66.0,30.15,NNW,335,1.0,-999.0,60,-99.99,,,0.00,weatherlink.com 1.10,2013-05-18 17:39:00,
2013-05-18 13:54:00,80.7,65.0,30.14,ENE,74,2.0,-999.0,60,-99.99,,,0.00,weatherlink.com 1.10,2013-05-18 17:54:00,
2013-05-18 14:09:00,80.3,66.0,30.14,WNW,292,0.0,-999.0,61,-99.99,,,0.00,weatherlink.com 1.10,2013-05-18 18:09:00,
2013-05-18 14:24:00,80.3,66.0,30.14,North,360,1.0,-999.0,61,-99.99,,,0.00,weatherlink.com 1.10,2013-05-18 18:24:00,
2013-05-18 14:39:00,81.2,65.0,30.14,ENE,60,1.0,-999.0,59,-99.99,,,0.00,weatherlink.com 1.10,2013-05-18 18:39:00,
2013-05-18 14:54:00,80.9,66.0,30.14,NNW,331,3.0,-999.0,60,-99.99,,,0.00,weatherlink.com 1.10,2013-05-18 18:54:00,
2013-05-18 15:09:00,80.9,65.0,30.13,NW,313,5.0,-999.0,59,-99.99,,,0.00,weatherlink.com 1.10,2013-05-18 19:09:00,
2013-05-18 15:24:00,80.7,66.0,30.12,ENE,64,3.0,-999.0,61,-99.99,,,0.00,weatherlink.com 1.10,2013-05-18 19:24:00,
2013-05-18 15:39:00,81.2,65.0,30.11,ENE,75,0.0,-999.0,59,-99.99,,,0.00,weatherlink.com 1.10,2013-05-18 19:39:00,
2013-05-18 15:54:00,81.2,65.0,30.11,ENE,68,3.0,-999.0,59,-99.99,,,0.00,weatherlink.com 1.10,2013-05-18 19:54:00,
2013-05-18 16:09:00,81.2,65.0,30.11,NNE,13,2.0,-999.0,59,-99.99,,,0.00,weatherlink.com 1.10,2013-05-18 20:09:00,
2013-05-18 16:24:00,79.8,65.0,30.09,NW,319,0.0,-999.0,60,-99.99,,,0.00,weatherlink.com 1.10,2013-05-18 20:24:00,
2013-05-18 16:39:00,78.8,65.0,30.09,SSE,150,0.0,-999.0,62,-99.99,,,0.00,weatherlink.com 1.10,2013-05-18 20:39:00,
2013-05-18 16:54:00,78.3,65.0,30.09,NNE,20,0.0,-999.0,63,-99.99,,,0.00,weatherlink.com 1.10,2013-05-18 20:54:00,
2013-05-18 17:09:00,77.7,64.0,30.08,NW,323,0.0,-999.0,63,-99.99,,,0.00,weatherlink.com 1.10,2013-05-18 21:09:00,
2013-05-18 17:24:00,77.4,64.0,30.09,WNW,284,0.0,-999.0,64,-99.99,,,0.00,weatherlink.com 1.10,2013-05-18 21:24:00,
2013-05-18 17:39:00,77.2,65.0,30.10,SE,139,0.0,-999.0,66,-99.99,,,0.00,weatherlink.com 1.10,2013-05-18 21:39:00,
2013-05-18 17:54:00,76.7,65.0,30.11,SSE,167,0.0,-999.0,68,-99.99,,,0.00,weatherlink.com 1.10,2013-05-18 21:54:00,
2013-05-18 18:09:00,76.3,66.0,30.11,SSE,167,0.0,-999.0,70,-99.99,,,0.01,weatherlink.com 1.10,2013-05-18 22:09:00,
2013-05-18 18:24:00,76.0,66.0,30.12,SSE,167,0.0,-999.0,71,-99.99,,,0.03,weatherlink.com 1.10,2013-05-18 22:24:00,
2013-05-18 18:39:00,75.8,66.0,30.12,SSE,167,0.0,-999.0,72,-99.99,,,0.03,weatherlink.com 1.10,2013-05-18 22:39:00,
2013-05-18 18:54:00,75.6,66.0,30.12,SSE,167,0.0,-999.0,73,-99.99,,,0.04,weatherlink.com 1.10,2013-05-18 22:54:00,
2013-05-18 19:09:00,75.3,67.0,30.12,SSE,167,0.0,-999.0,74,-99.99,,,0.08,weatherlink.com 1.10,2013-05-18 23:09:00,
2013-05-18 19:24:00,75.1,67.0,30.12,SSE,167,0.0,-999.0,75,-99.99,,,0.09,weatherlink.com 1.10,2013-05-18 23:24:00,
2013-05-18 19:39:00,74.7,66.0,30.12,SSE,167,0.0,-999.0,75,-99.99,,,0.09,weatherlink.com 1.10,2013-05-18 23:39:00,
2013-05-18 19:54:00,74.4,66.0,30.11,SSE,167,0.0,-999.0,76,-99.99,,,0.09,weatherlink.com 1.10,2013-05-18 23:54:00,
2013-05-18 20:09:00,74.0,66.0,30.11,SSE,167,0.0,-999.0,77,-99.99,,,0.10,weatherlink.com 1.10,2013-05-19 00:09:00,
2013-05-18 20:24:00,73.7,66.0,30.12,SSE,167,0.0,-999.0,77,-99.99,,,0.10,weatherlink.com 1.10,2013-05-19 00:24:00,
2013-05-18 20:39:00,73.5,66.0,30.11,SSE,167,0.0,-999.0,77,-99.99,,,0.10,weatherlink.com 1.10,2013-05-19 00:39:00,
2013-05-18 20:54:00,73.3,66.0,30.11,SSE,167,0.0,-999.0,78,-99.99,,,0.10,weatherlink.com 1.10,2013-05-19 00:54:00,
2013-05-18 21:09:00,73.2,66.0,30.11,SSE,167,0.0,-999.0,78,-99.99,,,0.10,weatherlink.com 1.10,2013-05-19 01:09:00,
2013-05-18 21:24:00,72.8,66.0,30.12,SSE,167,0.0,-999.0,78,-99.99,,,0.10,weatherlink.com 1.10,2013-05-19 01:24:00,
2013-05-18 21:39:00,72.5,66.0,30.12,SSE,167,0.0,-999.0,79,-99.99,,,0.10,weatherlink.com 1.10,2013-05-19 01:39:00,
2013-05-18 21:54:00,72.3,65.0,30.13,SSE,167,0.0,-999.0,79,-99.99,,,0.10,weatherlink.com 1.10,2013-05-19 01:54:00,
2013-05-18 22:09:00,72.3,65.0,30.13,SSE,167,0.0,-999.0,79,-99.99,,,0.10,weatherlink.com 1.10,2013-05-19 02:09:00,
2013-05-18 22:24:00,72.3,66.0,30.13,SSE,167,0.0,-999.0,80,-99.99,,,0.10,weatherlink.com 1.10,2013-05-19 02:24:00,
2013-05-18 22:39:00,72.3,66.0,30.13,SSE,167,0.0,-999.0,80,-99.99,,,0.10,weatherlink.com 1.10,2013-05-19 02:39:00,
2013-05-18 22:54:00,72.3,66.0,30.13,SSE,167,0.0,-999.0,80,-99.99,,,0.10,weatherlink.com 1.10,2013-05-19 02:54:00,
2013-05-18 23:09:00,72.3,66.0,30.12,SSE,167,0.0,-999.0,80,-99.99,,,0.10,weatherlink.com 1.10,2013-05-19 03:09:00,
2013-05-18 23:24:00,72.3,66.0,30.12,SSE,167,0.0,-999.0,80,-99.99,,,0.10,weatherlink.com 1.10,2013-05-19 03:24:00,
2013-05-18 23:39:00,72.3,66.0,30.12,SSE,167,0.0,-999.0,80,-99.99,,,0.10,weatherlink.com 1.10,2013-05-19 03:39:00,
2013-05-18 23:54:00,72.1,66.0,30.12,SSE,167,0.0,-999.0,81,-99.99,,,0.10,weatherlink.com 1.10,2013-05-19 03:54:00,